Regional Weather Roundup
Issued by NWS

Home | Current Version | Previous Version | Graphics & Text | Print | Product List | Glossary Off
Versions: 1 2 3 4 5 6 7 8 9 10 11 12 13 14 15 16 17 18 19 20 21 22 23 24 25 26 27 28 29 30 31 32 33 34 35 36 37 38 39 40 41 42 43 44 45 46 47 48 49 50

000
ASUS43 KLOT 021321
RWRIL

ILLINOIS REGIONAL WEATHER ROUNDUP
NATIONAL WEATHER SERVICE CHICAGO/ROMEOVILLE IL
800 AM CDT THU JUL 02 2015

NOTE: "FAIR" INDICATES FEW OR NO CLOUDS BELOW 12,000 FEET WITH NO
SIGNIFICANT WEATHER AND/OR OBSTRUCTIONS TO VISIBILITY.

* THESE STATIONS ARE NOT UNDER NWS QUALITY CONTROL. THEY ALSO MAY NOT
  REPORT WEATHER SUCH AS PRECIPITATION OR FOG.

ILZ001-002-007-009-015-016-024-021400-
NORTHWEST ILLINOIS

CITY           SKY/WX    TMP DP  RH WIND       PRES   REMARKS
MOLINE         SUNNY     59  50  72 E14       30.00R
STERLING*      SUNNY     57  52  82 E13       30.01R
$$

ILZ003-004-008-010-011-017-018-021400-
NORTH CENTRAL ILLINOIS

CITY           SKY/WX    TMP DP  RH WIND       PRES   REMARKS
ROCKFORD       MOSUNNY   59  51  75 NE16      30.03F
$$

ILZ005-006-012>014-019>023-021400-
NORTHEAST ILLINOIS

CITY           SKY/WX    TMP DP  RH WIND       PRES   REMARKS
CHICAGO-OHARE  CLOUDY    57  53  86 NE8       30.01R
CHICAGO-MIDWAY PTSUNNY   62  56  80 NE10      30.00R
AURORA         CLOUDY    57  52  83 NE10      30.02R
WAUKEGAN       CLOUDY    56  52  86 N9        30.03R
DUPAGE AIRPORT CLOUDY    56  53  90 NE8       30.01R
WHEELING       CLOUDY    57  53  86 N7        30.04R
NORTHERLY ISL    N/A     60  56  86 NE8         N/A
$$

LMZ740>746-021400-
SOUTHERN LAKE MICHIGAN

STATION/POSITION SKY/WX   TEMP    WIND        PRES    VSBY  WAVE
                          AIR SEA DIR/SP/G                  HT/PER
                          (F)     (DEG/KT/KT) (MB)    (MI)  (FT/S)
HARRISON CRIB              57      20/ 11/ 12   N/A
BURNHAM HARBOR             60      20/  9/ 11   N/A
CALUMET HARBOR             58     360/  6/ 11   N/A
BURNS HARBOR               59      60/ 11/ 14 1015.6R
MICHIGAN CITY              58      20/  7/  8   N/A
MICHIGAN CITY 6N           59 64   80/  8/ 12   N/A           3/ 5
ST. JOSEPH                 58 62                N/A           2/ 4
$$

ILZ025>027-034>036-040-047-049-050-058-095>099-021400-
WEST-CENTRAL ILLINOIS

CITY           SKY/WX    TMP DP  RH WIND       PRES   REMARKS
QUINCY         CLOUDY    63  55  75 E12       29.93R
$$

ILZ028>032-037-038-041>044-048-051>054-059>061-021400-
CENTRAL ILLINOIS

CITY           SKY/WX    TMP DP  RH WIND       PRES   REMARKS
BLOOMINGTON    CLOUDY    58  56  93 NE16      29.97F
DECATUR        PTSUNNY   62  56  80 NE10      29.93F
PEORIA         SUNNY     62  53  72 E10       29.97R
SPRINGFIELD    CLOUDY    62  56  80 NE9       29.93S
TAYLORVILLE    NOT AVBL
$$

ILZ033-039-045-046-055>057-062-063-021400-
EAST-CENTRAL ILLINOIS

CITY           SKY/WX    TMP DP  RH WIND       PRES   REMARKS
CHAMPAIGN      PTSUNNY   60  55  83 NE13G18   29.92F
MATTOON        CLOUDY    62  56  80 NE13      29.91R
$$

ILZ079-100>102-021400-
SOUTHWEST ILLINOIS

CITY           SKY/WX    TMP DP  RH WIND       PRES   REMARKS
ALTON          CLOUDY    63  63 100 NE6       29.90R
BELLEVILLE     LGT RAIN  64  64 100 NE9       29.86S FOG
CAHOKIA*       LGT RAIN  68  65  90 N9        29.87R FOG
$$

ILZ064>066-069>071-074>076-080>082-084>086-088>090-092>094-021400-
SOUTH-CENTRAL ILLINOIS

CITY           SKY/WX    TMP DP  RH WIND       PRES   REMARKS
CARBONDALE     CLOUDY    72  70  93 CALM      29.85S
MT. VERNON     CLOUDY    72  66  83 CALM      29.87S
$$

ILZ067-068-072-073-078-083-087-091-021400-
SOUTHEAST ILLINOIS

CITY           SKY/WX    TMP DP  RH WIND       PRES   REMARKS
LAWRENCEVILLE  CLOUDY    67  65  93 N9        29.88R FOG
$$

ABBREVIATIONS USED IN REMARKS
   TC - TEMPERATURE IN CELSIUS
  WCI - WIND CHILL INDEX
   HX - HEAT INDEX
  VSB - VISIBILITY
$$




USA.gov is the U.S. government's official web portal to all federal, state and local government web resources and services.